User: anonymous   Login
Location: Caltech
(34.1382°N, 118.1253°W)
Time: 09:06:22
(UTC-07:00)
Language:

Cosmos 1125 Rocket - Orbit

View from above orbital plane
View from above orbital plane
View from above satellite
View from above satellite

Ground track
Ground track

The orbit data is extracted from the following two-line orbital elements,

1 11511U 79078B   16151.54760739  .00000028  00000-0  18341-4 0  9996
2 11511  74.0369 298.5569 0016608 275.8270  84.0990 14.36711762923660
Epoch (UTC): 30 May 2016 13:08:33
Eccentricity: 0.0016608
inclination: 74.0369°
perigee height: 757 km
apogee height: 781 km
right ascension of ascending node: 298.5569°
argument of perigee: 275.8270°
revolutions per day: 14.36711762
mean anomaly at epoch: 84.0990°
orbit number at epoch: 92366

The dashed part of the orbit path shows where the satellite is in the earth's shadow,  

DLR